User: anonymous   Login
Location: Cranbrook Institute of Science
(42.5830°N, 83.2450°W)
Time: 14:33:41
(UTC-04:00)
Language:

CZ-4B R/B - Orbit

View from above orbital plane
View from above orbital plane
View from above satellite
View from above satellite

Ground track
Ground track

The orbit data is extracted from the following two-line orbital elements,

1 29093U 06015B   18140.86706549  .00002797  00000-0  63419-4 0  9996
2 29093  97.5247 266.0942 0060179 180.2584 179.8642 15.42114294669538
Epoch (UTC): 20 May 2018 20:48:34
Eccentricity: 0.0060179
inclination: 97.5247°
perigee height: 399 km
apogee height: 481 km
right ascension of ascending node: 266.0942°
argument of perigee: 180.2584°
revolutions per day: 15.42114294
mean anomaly at epoch: 179.8642°
orbit number at epoch: 66953

The dashed part of the orbit path shows where the satellite is in the earth's shadow,  

DLR